Home   Weather   Nagoya   Past weeks

Flag for Japan Past Weather in Nagoya, Japan — Yesterday and Last 2 Weeks

68 °F

Passing clouds.

Feels Like: 68 °F
Forecast: 55 / 73 °F
Wind: 22 mph from Northwest

Location: Nagoya Airport

Current Time: Oct 23, 2016 at 6:33:17 AM

Latest Report: Oct 23, 2016 at 6:00 AM

Visibility: N/A

Pressure: 29.77 "Hg

Humidity: 56%

Dew Point: 52 °F

Location of NagoyaLocation

Past Weather in Nagoya — Graph


Nagoya Temperature Yesterday

Maximum temperature yesterday: 68 °F (at 11:30 AM)
Minimum temperature yesterday: 61 °F (at 5:30 AM)
Average temperature yesterday: 66 °F

High & Low Weather Summary for the Past Weeks

High79 °F (Oct 8, 10:30 AM)94% (Oct 8, 11:00 PM)30.33 "Hg (Oct 8, 11:00 PM)
Low57 °F (Oct 15, 12:00 AM)30% (Oct 14, 2:00 PM)29.68 "Hg (Oct 9, 3:00 AM)
Average68 °F67%30.03 "Hg
* Reported Oct 8 5:00 AM — Oct 23 5:30 AM, Nagoya, Weather by CustomWeather, © 2016

Note: Actual official high and low records may vary slightly from our data, if they occured in-between our weather recording intervals... More about our weather records


Nagoya Weather History for the Previous 24 Hours

Scroll right to see more
Time TempWeatherWind HumidityBarometerVisibility
5:30 AM
Sun, Oct 23
68 °FClear.25 mph60%29.74 "Hg10 mi
5:00 AM68 °FClear.22 mph60%29.74 "Hg10 mi
4:30 AM68 °FPassing clouds.23 mph64%29.74 "HgN/A
4:00 AM68 °FScattered showers. Clear.22 mph64%29.74 "HgN/A
3:30 AM66 °FClear.13 mph78%29.77 "Hg10 mi
3:00 AM66 °FClear.10 mph78%29.77 "Hg10 mi
2:30 AM66 °FClear.12 mph78%29.77 "Hg10 mi
2:00 AM66 °FClear.10 mph78%29.77 "Hg10 mi
1:30 AM66 °FClear.10 mph78%29.77 "Hg10 mi
1:00 AM66 °FClear.9 mph83%29.77 "Hg10 mi
12:30 AM66 °FClear.9 mph78%29.77 "Hg10 mi
12:00 AM66 °FClear.10 mph78%29.80 "Hg10 mi
11:30 PM
Sat, Oct 22
66 °FClear.10 mph78%29.80 "Hg10 mi
11:00 PM66 °FClear.10 mph78%29.80 "Hg6 mi
10:30 PM66 °FPartly cloudy.12 mph78%29.80 "Hg6 mi
10:00 PM68 °FClear.12 mph69%29.80 "Hg6 mi
9:30 PM68 °FClear.10 mph73%29.83 "Hg6 mi
9:00 PM66 °FPassing clouds.12 mph78%29.83 "Hg6 mi
8:30 PM66 °FPassing clouds.7 mph78%29.83 "Hg6 mi
8:00 PM68 °FPassing clouds.7 mph73%29.83 "HgN/A
7:30 PM66 °FPartly cloudy.5 mph73%29.83 "HgN/A
7:00 PM68 °FPartly cloudy.3 mph69%29.83 "HgN/A
6:30 PM68 °FPassing clouds.3 mph69%29.86 "HgN/A
6:00 PM66 °FPartly cloudy.5 mph73%29.86 "HgN/A
5:30 PM68 °FPassing clouds.5 mph73%29.86 "HgN/A
5:00 PM68 °FPartly sunny.5 mph69%29.86 "HgN/A
4:30 PM68 °FPartly sunny.5 mph69%29.86 "HgN/A
4:00 PM68 °FBroken clouds.3 mph69%29.86 "HgN/A
3:30 PM68 °FPartly sunny.3 mph64%29.86 "HgN/A
3:00 PM68 °FBroken clouds.2 mph64%29.86 "HgN/A
2:30 PM68 °FPartly sunny.2 mph64%29.89 "HgN/A
2:00 PM68 °FBroken clouds.3 mph64%29.89 "HgN/A
1:30 PM68 °FBroken clouds.6 mph69%29.89 "HgN/A
1:00 PM68 °FBroken clouds.7 mph69%29.89 "HgN/A
12:30 PM68 °FPartly sunny.6 mph69%29.92 "HgN/A
12:00 PM68 °FBroken clouds.5 mph64%29.92 "HgN/A
11:30 AM68 °FPartly sunny.3 mph69%29.92 "HgN/A
11:00 AM66 °FBroken clouds.2 mph68%29.95 "HgN/A
10:30 AM66 °FBroken clouds.2 mph68%29.95 "HgN/A
10:00 AM66 °FBroken clouds.2 mph68%29.98 "HgN/A
9:30 AM66 °FBroken clouds.3 mph68%29.98 "HgN/A
9:00 AM66 °FPartly sunny.6 mph64%29.98 "HgN/A
8:30 AM64 °FPartly sunny.6 mph68%30.01 "HgN/A
8:00 AM64 °FPartly sunny.10 mph68%30.01 "HgN/A
7:30 AM64 °FPartly sunny.9 mph68%30.01 "HgN/A
7:00 AM63 °FBroken clouds.9 mph73%30.01 "HgN/A
6:30 AM63 °FPartly sunny.9 mph73%30.01 "HgN/A
6:00 AM63 °FPassing clouds.8 mph73%30.01 "HgN/A
Weather by CustomWeather, © 2016

See weather overviewHow to use our weather pages